Regional Weather Roundup
Issued by NWS Jackson, KY

Home | Current Version | Previous Version | Text Only | Print | Product List | Glossary On
Versions: 1 2 3 4 5 6 7 8 9 10 11 12 13 14 15 16 17 18 19 20 21 22 23 24 25 26 27
000
ASUS43 KJKL 221910
RWRJKL

EAST KENTUCKY HOURLY WEATHER ROUNDUP
NATIONAL WEATHER SERVICE JACKSON KY
300 PM EDT MON MAY 22 2017

NOTE: "FAIR" INDICATES FEW OR NO CLOUDS BELOW 12,000 FEET WITH
NO SIGNIFICANT WEATHER AND/OR OBSTRUCTIONS TO VISIBILITY.

* THESE REPORTS ARE NOT UNDER NWS QUALITY CONTROL AND MAY NOT
  REPORT WEATHER SUCH AS PRECIPITATION AND FOG.

KYZ079-080-083-085-087-088-110-112-115-119-120-222000
...EASTERN KENTUCKY...

CITY           SKY/WX    TMP DP  RH WIND       PRES   REMARKS
JACKSON        CLOUDY    66  50  56 NW5       30.10F
LONDON         PTSUNNY   68  48  48 VRB5      30.10F
SOMERSET*      CLOUDY    64  46  52 E3        30.11F
MONTICELLO*    PTSUNNY   68  51  54 N10G18    30.11F
WILLIAMSBURG*  MOCLDY    68  54  60 N6        30.09F
MIDDLESBORO*   PTSUNNY   72  57  59 NE6       30.07F
HARLAN APT*    MOCLDY    70  54  56 NW3       30.08F
PIKE CO APT*     N/A     66  55  69 W3        30.09F
BIG SANDY APT* CLOUDY    68  53  59 CALM      30.09F
MOREHEAD APT*  CLOUDY    64  48  55 W5        30.12F
$$

KYZ035-036-041-042-044-050-067-078-099-222000
...CENTRAL KENTUCKY...

CITY           SKY/WX    TMP DP  RH WIND       PRES   REMARKS
MT STERLING*   MOSUNNY   66  46  48 CALM      30.12F
FLEMING/MASON* MOSUNNY   65  47  52 W6        30.12F
DANVILLE*      CLOUDY    64  46  52 E5        30.11F
LEXINGTON      CLOUDY    65  45  48 NW5       30.11F
FRANKFORT      CLOUDY    69  44  40 VRB6      30.10F
LOUISVILLE     CLOUDY    69  46  43 CALM      30.10F
LEBANON*         N/A     66  46  48 CALM      30.10F
GLASGOW*       PTSUNNY   70  47  43 E6        30.10F
BOWLING GREEN  CLOUDY    70  50  49 CALM      30.09F
$$

KYZ091>093-OHZ055-061-077-WVZ005-015-034-035-042-222000
...SOUTHERN OHIO/WEST VIRGINIA...

CITY           SKY/WX    TMP DP  RH WIND       PRES   REMARKS
COVINGTON      CLOUDY    64  41  42 CALM      30.11F
COLUMBUS       CLOUDY    64  45  49 VRB5      30.08F
DAYTON         CLOUDY    66  44  45 CALM      30.09F
WILMINGTON     CLOUDY    63  45  51 W3        30.10F
HUNTINGTON     CLOUDY    68  49  50 VRB6      30.09F
CHARLESTON     CLOUDY    67  50  54 VRB6      30.08F
PINEVILLE*     PTSUNNY   70  56  62 MISG      30.13F
BECKLEY        PTSUNNY   65  53  65 W8        30.10F
BLUEFIELD      CLOUDY    64  52  64 VRB7      30.11F
LOGAN CO APT*    N/A     66  54  63 W9        30.09F
$$

VAZ002-007-008-TNZ017-027-036-066-071-222000
...SOUTHWEST VIRGINIA/EAST TENNESSEE...

CITY           SKY/WX    TMP DP  RH WIND       PRES   REMARKS
WISE*            N/A     68  55  64 CALM      30.11F
JONESVILLE*      N/A     73  57  56 NW5       30.09S
ABINGDON*      PTSUNNY   72  62  70 NW5       30.07F
BRISTOL        PTSUNNY   75  62  64 CALM      30.05F
MORRISTOWN*    CLOUDY    70  63  78 VRB5      30.05F
SEVIERVILLE*   CLOUDY    72  61  68 NW5       30.04F
KNOXVILLE      CLOUDY    72  59  63 N6        30.05S
LAFOLLETTE*    CLEAR     73  57  56 VRB6      30.09F
OAK RIDGE      CLOUDY    73  58  59 VRB3      30.06F
CROSSVILLE     MOSUNNY   71  53  52 E6        30.09F
NASHVILLE      PTSUNNY   74  49  41 VRB5      30.08F
$$

...KEY TO REMARKS...
VSB - VISIBILITY IN MILES
WCI - WIND CHILL INDEX
HX  - HEAT INDEX

$$




USA.gov is the U.S. government's official web portal to all federal, state and local government web resources and services.